AAL2316 KORD-KMCO

Flight info

Callsign AAL2316
Flight time 1h 54m
Altitude 39000
Route DENNT DARCY DREGS DUMGE SCOTO SWAPP Q79 THRSR ZJAYX GRNCH5
Aircraft B78X/H-SDE1E2E3FGHIJ2J3J4J5M1RWXY/LB1D1

Departure

Time 2026-04-26 20:23
Airport Chicago O'Hare International Airport (KORD)

Arrival

Time 2026-04-26 22:18
Airport Orlando International Airport (KMCO)
Time Latitude Longitude Altitude Speed Heading
2026-04-26 19:38 41.97348 -87.88650 676 ft 0 kts 358°
2026-04-26 20:04 41.97340 -87.88649 674 ft 4 kts 351°
2026-04-26 20:04 41.97315 -87.88643 675 ft 7 kts 349°
2026-04-26 20:04 41.97289 -87.88636 675 ft 7 kts 332°
2026-04-26 20:04 41.97272 -87.88613 673 ft 7 kts 283°
2026-04-26 20:05 41.97270 -87.88586 672 ft 0 kts 270°
2026-04-26 20:10 41.97270 -87.88590 676 ft 1 kts 270°
2026-04-26 20:10 41.97270 -87.88612 676 ft 3 kts 270°
2026-04-26 20:10 41.97270 -87.88655 676 ft 6 kts 270°
2026-04-26 20:11 41.97270 -87.88718 676 ft 8 kts 270°
2026-04-26 20:11 41.97270 -87.88800 676 ft 10 kts 270°
2026-04-26 20:11 41.97270 -87.88901 676 ft 12 kts 270°
2026-04-26 20:12 41.97269 -87.89158 676 ft 16 kts 270°
2026-04-26 20:12 41.97267 -87.89281 676 ft 8 kts 261°
2026-04-26 20:12 41.97242 -87.89312 676 ft 4 kts 201°
2026-04-26 20:12 41.97215 -87.89328 676 ft 4 kts 213°
2026-04-26 20:13 41.97199 -87.89364 676 ft 5 kts 247°
2026-04-26 20:13 41.97196 -87.89411 676 ft 6 kts 265°
2026-04-26 20:13 41.97193 -87.89482 676 ft 9 kts 270°
2026-04-26 20:13 41.97210 -87.89576 676 ft 12 kts 297°
2026-04-26 20:14 41.97241 -87.89684 675 ft 13 kts 301°
2026-04-26 20:14 41.97247 -87.89794 676 ft 13 kts 249°
2026-04-26 20:14 41.97211 -87.89916 676 ft 15 kts 261°
2026-04-26 20:14 41.97206 -87.90030 676 ft 11 kts 270°
2026-04-26 20:15 41.97190 -87.90117 676 ft 8 kts 221°
2026-04-26 20:15 41.97150 -87.90150 676 ft 6 kts 231°
2026-04-26 20:15 41.97139 -87.90205 676 ft 6 kts 262°
2026-04-26 20:15 41.97138 -87.90281 676 ft 10 kts 271°
2026-04-26 20:16 41.97140 -87.90391 676 ft 13 kts 271°
2026-04-26 20:16 41.97096 -87.90477 676 ft 12 kts 193°
2026-04-26 20:16 41.97044 -87.90559 675 ft 13 kts 260°
2026-04-26 20:16 41.97042 -87.90694 675 ft 16 kts 269°
2026-04-26 20:17 41.97042 -87.90860 675 ft 19 kts 270°
2026-04-26 20:17 41.97042 -87.91053 676 ft 22 kts 270°
2026-04-26 20:17 41.97042 -87.91268 677 ft 24 kts 270°
2026-04-26 20:17 41.97042 -87.91417 677 ft 24 kts 270°
2026-04-26 20:18 41.97041 -87.91741 677 ft 26 kts 269°
2026-04-26 20:18 41.97040 -87.91988 677 ft 27 kts 269°
2026-04-26 20:18 41.97040 -87.92248 676 ft 28 kts 270°
2026-04-26 20:18 41.97040 -87.92501 677 ft 26 kts 269°
2026-04-26 20:19 41.97039 -87.92743 677 ft 26 kts 270°
2026-04-26 20:19 41.97039 -87.92982 678 ft 26 kts 270°
2026-04-26 20:19 41.97017 -87.93126 679 ft 6 kts 217°
2026-04-26 20:19 41.97011 -87.93128 676 ft 0 kts 199°
2026-04-26 20:20 41.97002 -87.93132 677 ft 4 kts 198°
2026-04-26 20:21 41.96951 -87.93141 679 ft 10 kts 183°
2026-04-26 20:21 41.96900 -87.93089 679 ft 8 kts 97°
2026-04-26 20:21 41.96901 -87.93068 681 ft 0 kts 89°
2026-04-26 20:22 41.96901 -87.93052 681 ft 6 kts 89°
2026-04-26 20:22 41.96901 -87.92885 681 ft 38 kts 90°
2026-04-26 20:23 41.96901 -87.92192 678 ft 111 kts 90°
2026-04-26 20:23 41.96903 -87.90851 721 ft 171 kts 91°
2026-04-26 20:23 41.96705 -87.89252 1749 ft 170 kts 115°
2026-04-26 20:23 41.95935 -87.88150 2962 ft 172 kts 147°
2026-04-26 20:24 41.94756 -87.87479 3519 ft 197 kts 162°
2026-04-26 20:24 41.93361 -87.86938 4263 ft 218 kts 164°
2026-04-26 20:24 41.91785 -87.86413 4848 ft 248 kts 166°
2026-04-26 20:24 41.90084 -87.85860 4998 ft 252 kts 166°
2026-04-26 20:25 41.88361 -87.85300 5003 ft 256 kts 166°
2026-04-26 20:25 41.87780 -87.85111 5002 ft 254 kts 166°
2026-04-26 20:25 41.84879 -87.84317 5825 ft 255 kts 169°
2026-04-26 20:25 41.83125 -87.83846 7112 ft 258 kts 169°
2026-04-26 20:26 41.81345 -87.83347 8301 ft 264 kts 169°
2026-04-26 20:26 41.79572 -87.82850 9453 ft 269 kts 169°
2026-04-26 20:26 41.78347 -87.82510 10209 ft 273 kts 169°
2026-04-26 20:26 41.76429 -87.81982 11039 ft 289 kts 170°
2026-04-26 20:27 41.74405 -87.81423 11802 ft 306 kts 170°
2026-04-26 20:27 41.72265 -87.80831 12526 ft 323 kts 170°
2026-04-26 20:27 41.70025 -87.80210 13425 ft 333 kts 170°
2026-04-26 20:27 41.67730 -87.79575 14350 ft 341 kts 170°
2026-04-26 20:28 41.65368 -87.78924 14866 ft 349 kts 170°
2026-04-26 20:28 41.62981 -87.78265 14994 ft 352 kts 170°
2026-04-26 20:28 41.60598 -87.77606 14991 ft 347 kts 170°
2026-04-26 20:28 41.58224 -87.76952 14990 ft 348 kts 171°
2026-04-26 20:29 41.55846 -87.76299 14987 ft 348 kts 170°
2026-04-26 20:29 41.53503 -87.75654 15044 ft 349 kts 170°
2026-04-26 20:29 41.51115 -87.74997 15654 ft 352 kts 171°
2026-04-26 20:29 41.48695 -87.74333 16619 ft 358 kts 171°
2026-04-26 20:30 41.46237 -87.73658 17556 ft 364 kts 171°
2026-04-26 20:30 41.43726 -87.72970 18461 ft 371 kts 171°
2026-04-26 20:30 41.41172 -87.72271 19229 ft 378 kts 171°
2026-04-26 20:30 41.38577 -87.71559 19971 ft 384 kts 171°
2026-04-26 20:31 41.36076 -87.70870 20672 ft 390 kts 171°
2026-04-26 20:31 41.33402 -87.70131 21391 ft 396 kts 171°
2026-04-26 20:31 41.30682 -87.69377 22085 ft 402 kts 171°
2026-04-26 20:31 41.27927 -87.68615 22765 ft 408 kts 171°
2026-04-26 20:32 41.25125 -87.67841 23435 ft 414 kts 171°
2026-04-26 20:32 41.22283 -87.67057 24015 ft 420 kts 171°
2026-04-26 20:32 41.19407 -87.66263 24557 ft 425 kts 171°
2026-04-26 20:32 41.16494 -87.65453 25103 ft 430 kts 171°
2026-04-26 20:33 41.13594 -87.64641 25631 ft 434 kts 171°
2026-04-26 20:33 41.10622 -87.63809 26168 ft 438 kts 171°
2026-04-26 20:33 41.07621 -87.62966 26688 ft 443 kts 171°
2026-04-26 20:33 41.04593 -87.62111 27197 ft 447 kts 171°
2026-04-26 20:34 41.01533 -87.61241 27701 ft 451 kts 171°
2026-04-26 20:34 40.98597 -87.60401 28185 ft 455 kts 171°
2026-04-26 20:34 40.95488 -87.59505 28674 ft 459 kts 171°
2026-04-26 20:34 40.92343 -87.58592 29158 ft 463 kts 171°
2026-04-26 20:35 40.89179 -87.57667 29643 ft 467 kts 171°
2026-04-26 20:35 40.85987 -87.56732 30088 ft 471 kts 171°
2026-04-26 20:35 40.82765 -87.55787 30479 ft 475 kts 171°
2026-04-26 20:35 40.79525 -87.54833 30869 ft 479 kts 171°
2026-04-26 20:36 40.76307 -87.53883 31251 ft 482 kts 171°
2026-04-26 20:36 40.73019 -87.52909 31634 ft 486 kts 171°
2026-04-26 20:36 40.69712 -87.51925 32006 ft 489 kts 171°
2026-04-26 20:36 40.66337 -87.50917 32380 ft 492 kts 171°
2026-04-26 20:37 40.62973 -87.50145 32753 ft 489 kts 181°
2026-04-26 20:37 40.59646 -87.50289 33125 ft 482 kts 194°
2026-04-26 20:37 40.56398 -87.51301 33491 ft 478 kts 202°
2026-04-26 20:37 40.53250 -87.52711 33827 ft 479 kts 204°
2026-04-26 20:38 40.50097 -87.54158 34132 ft 482 kts 204°
2026-04-26 20:38 40.46915 -87.55618 34401 ft 485 kts 204°
2026-04-26 20:38 40.43727 -87.57078 34665 ft 487 kts 204°
2026-04-26 20:38 40.40527 -87.58535 35043 ft 487 kts 204°
2026-04-26 20:39 40.37318 -87.59984 35455 ft 486 kts 204°
2026-04-26 20:39 40.34118 -87.61416 35867 ft 485 kts 204°
2026-04-26 20:39 40.30927 -87.62831 36261 ft 484 kts 204°
2026-04-26 20:39 40.27649 -87.63968 36648 ft 491 kts 195°
2026-04-26 20:40 40.24222 -87.64368 37023 ft 499 kts 185°
2026-04-26 20:40 40.20737 -87.63989 37399 ft 507 kts 175°
2026-04-26 20:40 40.17334 -87.62827 37762 ft 515 kts 165°
2026-04-26 20:40 40.14090 -87.60888 38130 ft 522 kts 154°
2026-04-26 20:41 40.11086 -87.58174 38496 ft 529 kts 143°
2026-04-26 20:41 40.08467 -87.54773 38816 ft 533 kts 134°
2026-04-26 20:41 40.06029 -87.51114 39037 ft 534 kts 134°
2026-04-26 20:42 40.01221 -87.43756 39034 ft 528 kts 134°
2026-04-26 20:42 39.98603 -87.40433 39060 ft 523 kts 147°
2026-04-26 20:42 39.95600 -87.37779 39074 ft 521 kts 154°
2026-04-26 20:43 39.89296 -87.33257 39047 ft 514 kts 161°
2026-04-26 20:43 39.82775 -87.29324 39051 ft 519 kts 157°
2026-04-26 20:44 39.76429 -87.24826 39041 ft 518 kts 158°
2026-04-26 20:44 39.70003 -87.20669 39047 ft 520 kts 158°
2026-04-26 20:45 39.63571 -87.16305 39058 ft 521 kts 158°
2026-04-26 20:45 39.57119 -87.12045 39058 ft 519 kts 158°
2026-04-26 20:46 39.50683 -87.07756 39047 ft 522 kts 158°
2026-04-26 20:46 39.44213 -87.03469 39047 ft 521 kts 158°
2026-04-26 20:47 39.37753 -86.99198 39040 ft 522 kts 158°
2026-04-26 20:47 39.31325 -86.94952 39029 ft 521 kts 158°
2026-04-26 20:48 39.24830 -86.90677 39045 ft 526 kts 158°
2026-04-26 20:48 39.18316 -86.86391 39044 ft 525 kts 158°
2026-04-26 20:49 39.11830 -86.82043 39047 ft 526 kts 156°
2026-04-26 20:49 39.05372 -86.77604 39045 ft 526 kts 158°
2026-04-26 20:50 38.98872 -86.73235 39042 ft 528 kts 157°
2026-04-26 20:50 38.92380 -86.68820 39042 ft 528 kts 157°
2026-04-26 20:51 38.85901 -86.64461 39043 ft 527 kts 157°
2026-04-26 20:51 38.79391 -86.60069 39047 ft 530 kts 157°
2026-04-26 20:52 38.72866 -86.55684 39061 ft 530 kts 157°
2026-04-26 20:52 38.66300 -86.51280 39044 ft 531 kts 157°
2026-04-26 20:53 38.59762 -86.46903 39029 ft 531 kts 157°
2026-04-26 20:53 38.53186 -86.42512 39035 ft 534 kts 157°
2026-04-26 20:54 38.46644 -86.38148 39037 ft 533 kts 157°
2026-04-26 20:54 38.40062 -86.33772 39039 ft 533 kts 157°
2026-04-26 20:55 38.33472 -86.29395 39042 ft 533 kts 157°
2026-04-26 20:55 38.26887 -86.25034 39046 ft 533 kts 157°
2026-04-26 20:56 38.20299 -86.20678 39045 ft 533 kts 157°
2026-04-26 20:56 38.13715 -86.16334 39055 ft 534 kts 157°
2026-04-26 20:57 38.07093 -86.11974 39039 ft 537 kts 157°
2026-04-26 20:57 38.00469 -86.07621 39034 ft 536 kts 157°
2026-04-26 20:58 37.93842 -86.03276 39028 ft 536 kts 157°
2026-04-26 20:58 37.87259 -85.98967 39031 ft 536 kts 157°
2026-04-26 20:59 37.80609 -85.94625 39039 ft 538 kts 157°
2026-04-26 20:59 37.73957 -85.90288 39040 ft 537 kts 157°
2026-04-26 21:00 37.67316 -85.85970 39040 ft 537 kts 157°
2026-04-26 21:00 37.60657 -85.81648 39032 ft 539 kts 157°
2026-04-26 21:01 37.53973 -85.77318 39028 ft 539 kts 157°
2026-04-26 21:01 37.47301 -85.73001 39026 ft 538 kts 157°
2026-04-26 21:02 37.40691 -85.68724 39022 ft 537 kts 157°
2026-04-26 21:02 37.34030 -85.64420 39021 ft 540 kts 157°
2026-04-26 21:03 37.27348 -85.60114 39021 ft 539 kts 157°
2026-04-26 21:03 37.20676 -85.55818 39026 ft 540 kts 157°
2026-04-26 21:04 37.13985 -85.51510 39017 ft 540 kts 157°
2026-04-26 21:04 37.07288 -85.47206 39023 ft 541 kts 157°
2026-04-26 21:05 37.00595 -85.42910 39019 ft 541 kts 157°
2026-04-26 21:05 36.93861 -85.38661 39036 ft 541 kts 159°
2026-04-26 21:06 36.87130 -85.34569 39024 ft 541 kts 156°
2026-04-26 21:06 36.80433 -85.30200 39021 ft 542 kts 157°
2026-04-26 21:07 36.73671 -85.26006 39026 ft 543 kts 156°
2026-04-26 21:07 36.66950 -85.21712 39028 ft 542 kts 157°
2026-04-26 21:08 36.60095 -85.17955 39055 ft 533 kts 171°
2026-04-26 21:08 36.52863 -85.16011 39031 ft 530 kts 174°
2026-04-26 21:09 36.45692 -85.14153 39023 ft 530 kts 174°
2026-04-26 21:09 36.38465 -85.12284 39002 ft 530 kts 174°
2026-04-26 21:10 36.31232 -85.10417 39019 ft 531 kts 174°
2026-04-26 21:10 36.23989 -85.08551 39025 ft 531 kts 174°
2026-04-26 21:11 36.16761 -85.06692 39032 ft 530 kts 174°
2026-04-26 21:11 36.09546 -85.04840 39016 ft 528 kts 174°
2026-04-26 21:12 36.02301 -85.02987 39027 ft 534 kts 173°
2026-04-26 21:12 35.96276 -85.01441 39025 ft 531 kts 173°
2026-04-26 21:13 35.89030 -84.99595 39025 ft 532 kts 174°
2026-04-26 21:13 35.80610 -84.97447 39004 ft 531 kts 174°
2026-04-26 21:14 35.74548 -84.95907 38993 ft 532 kts 174°
2026-04-26 21:14 35.67285 -84.94062 38997 ft 532 kts 173°
2026-04-26 21:15 35.60042 -84.92226 38993 ft 532 kts 174°
2026-04-26 21:15 35.52791 -84.90390 38990 ft 532 kts 174°
2026-04-26 21:16 35.45596 -84.88568 38979 ft 532 kts 174°
2026-04-26 21:16 35.38332 -84.86734 38951 ft 532 kts 174°
2026-04-26 21:17 35.31078 -84.84905 38963 ft 533 kts 174°
2026-04-26 21:17 35.23810 -84.83076 38962 ft 532 kts 174°
2026-04-26 21:18 35.16547 -84.81251 38960 ft 532 kts 174°
2026-04-26 21:18 35.09352 -84.79448 38972 ft 532 kts 174°
2026-04-26 21:19 35.02082 -84.77628 38972 ft 533 kts 174°
2026-04-26 21:19 34.94824 -84.75809 38974 ft 532 kts 174°
2026-04-26 21:20 34.87570 -84.73992 38957 ft 532 kts 174°
2026-04-26 21:20 34.80290 -84.72195 38976 ft 533 kts 174°
2026-04-26 21:21 34.73021 -84.70388 38978 ft 532 kts 174°
2026-04-26 21:21 34.65770 -84.68588 38971 ft 532 kts 174°
2026-04-26 21:22 34.58551 -84.66803 38968 ft 532 kts 174°
2026-04-26 21:22 34.51287 -84.64920 38969 ft 534 kts 173°
2026-04-26 21:23 34.40400 -84.62071 38987 ft 533 kts 173°
2026-04-26 21:23 34.33116 -84.60159 38980 ft 534 kts 173°
2026-04-26 21:24 34.25839 -84.58271 38977 ft 533 kts 173°
2026-04-26 21:24 34.18627 -84.56394 38970 ft 534 kts 173°
2026-04-26 21:25 34.11352 -84.54507 38974 ft 534 kts 173°
2026-04-26 21:25 34.04098 -84.52628 38978 ft 532 kts 173°
2026-04-26 21:26 33.96838 -84.51008 38942 ft 531 kts 175°
2026-04-26 21:26 33.89552 -84.49351 38959 ft 531 kts 175°
2026-04-26 21:27 33.82324 -84.47787 38929 ft 529 kts 175°
2026-04-26 21:27 33.75090 -84.46175 38948 ft 529 kts 175°
2026-04-26 21:28 33.67833 -84.44592 38961 ft 529 kts 175°
2026-04-26 21:28 33.60716 -84.42176 38979 ft 542 kts 157°
2026-04-26 21:29 33.53947 -84.38146 38960 ft 542 kts 158°
2026-04-26 21:29 33.47208 -84.34113 38995 ft 541 kts 158°
2026-04-26 21:30 33.40509 -84.30127 38996 ft 541 kts 158°
2026-04-26 21:30 33.33751 -84.26103 38997 ft 543 kts 157°
2026-04-26 21:31 33.26972 -84.22078 38986 ft 543 kts 157°
2026-04-26 21:31 33.20201 -84.18063 38974 ft 543 kts 157°
2026-04-26 21:32 33.13438 -84.14061 38959 ft 543 kts 157°
2026-04-26 21:32 33.06671 -84.10062 38947 ft 543 kts 157°
2026-04-26 21:33 32.99882 -84.06061 38948 ft 542 kts 158°
2026-04-26 21:33 32.93142 -84.02092 38943 ft 541 kts 157°
2026-04-26 21:34 32.86564 -83.98220 38939 ft 540 kts 158°
2026-04-26 21:34 32.79817 -83.94268 38923 ft 540 kts 157°
2026-04-26 21:35 32.73086 -83.90319 38911 ft 540 kts 157°
2026-04-26 21:35 32.66548 -83.86500 38932 ft 540 kts 157°
2026-04-26 21:36 32.60944 -83.83225 38939 ft 540 kts 157°
2026-04-26 21:36 32.53049 -83.78624 38942 ft 541 kts 157°
2026-04-26 21:37 32.46291 -83.74691 38930 ft 541 kts 157°
2026-04-26 21:37 32.39538 -83.70766 38936 ft 540 kts 157°
2026-04-26 21:38 32.32777 -83.66842 38916 ft 541 kts 157°
2026-04-26 21:38 32.26019 -83.62923 38924 ft 541 kts 157°
2026-04-26 21:39 32.19308 -83.59033 38923 ft 541 kts 157°
2026-04-26 21:39 32.12531 -83.55096 38933 ft 545 kts 157°
2026-04-26 21:40 32.05729 -83.51240 38940 ft 540 kts 158°
2026-04-26 21:40 31.98966 -83.47335 38938 ft 541 kts 157°
2026-04-26 21:41 31.92196 -83.43448 38937 ft 541 kts 158°
2026-04-26 21:41 31.85404 -83.39562 38931 ft 545 kts 157°
2026-04-26 21:42 31.79819 -83.36149 38941 ft 544 kts 156°
2026-04-26 21:42 31.72816 -83.32318 38945 ft 542 kts 159°
2026-04-26 21:43 31.66202 -83.28550 38950 ft 543 kts 157°
2026-04-26 21:43 31.59382 -83.24734 38929 ft 544 kts 158°
2026-04-26 21:44 31.52523 -83.20892 38933 ft 544 kts 158°
2026-04-26 21:44 31.45682 -83.17057 38935 ft 544 kts 158°
2026-04-26 21:45 31.38863 -83.13256 38937 ft 543 kts 158°
2026-04-26 21:45 31.32301 -83.09589 38924 ft 543 kts 158°
2026-04-26 21:46 31.25491 -83.05803 38925 ft 543 kts 158°
2026-04-26 21:46 31.18813 -83.02086 38919 ft 542 kts 158°
2026-04-26 21:47 31.11995 -82.98304 38922 ft 543 kts 158°
2026-04-26 21:47 31.05169 -82.94520 38928 ft 544 kts 158°
2026-04-26 21:48 30.98301 -82.90721 38931 ft 547 kts 157°
2026-04-26 21:48 30.91438 -82.86928 38915 ft 546 kts 157°
2026-04-26 21:49 30.88108 -82.84822 38939 ft 548 kts 146°
2026-04-26 21:49 30.85028 -82.82147 38928 ft 551 kts 142°
2026-04-26 21:49 30.79169 -82.76496 38927 ft 550 kts 143°
2026-04-26 21:50 30.74034 -82.72051 38903 ft 549 kts 144°
2026-04-26 21:50 30.67038 -82.65649 38911 ft 551 kts 143°
2026-04-26 21:51 30.60962 -82.60249 38911 ft 551 kts 143°
2026-04-26 21:51 30.54903 -82.54776 38917 ft 551 kts 143°
2026-04-26 21:52 30.48841 -82.49356 38911 ft 551 kts 143°
2026-04-26 21:52 30.42765 -82.43914 38909 ft 551 kts 143°
2026-04-26 21:53 30.36690 -82.38486 38905 ft 551 kts 143°
2026-04-26 21:53 30.30608 -82.33061 38907 ft 552 kts 143°
2026-04-26 21:54 30.27605 -82.30382 38706 ft 551 kts 143°
2026-04-26 21:54 30.24550 -82.27663 37965 ft 554 kts 143°
2026-04-26 21:54 30.21501 -82.24957 37304 ft 552 kts 144°
2026-04-26 21:54 30.18246 -82.22652 36698 ft 547 kts 158°
2026-04-26 21:55 30.14709 -82.21130 36086 ft 538 kts 170°
2026-04-26 21:55 30.11047 -82.20407 35465 ft 530 kts 179°
2026-04-26 21:55 30.07391 -82.20177 34840 ft 525 kts 183°
2026-04-26 21:55 30.03737 -82.20086 34231 ft 523 kts 182°
2026-04-26 21:56 30.00115 -82.19896 33612 ft 523 kts 178°
2026-04-26 21:56 29.96554 -82.19324 33017 ft 522 kts 173°
2026-04-26 21:56 29.92968 -82.18458 32414 ft 519 kts 170°
2026-04-26 21:56 29.89455 -82.17513 31728 ft 516 kts 170°
2026-04-26 21:57 29.85970 -82.16573 31050 ft 513 kts 170°
2026-04-26 21:57 29.82502 -82.15639 30392 ft 511 kts 170°
2026-04-26 21:57 29.79052 -82.14714 29670 ft 508 kts 170°
2026-04-26 21:57 29.75635 -82.13802 29010 ft 503 kts 170°
2026-04-26 21:58 29.72247 -82.12900 28348 ft 497 kts 170°
2026-04-26 21:58 29.68879 -82.12008 27697 ft 492 kts 170°
2026-04-26 21:58 29.66855 -82.11474 27300 ft 489 kts 170°
2026-04-26 21:58 29.63553 -82.10607 26654 ft 484 kts 170°
2026-04-26 21:59 29.59228 -82.09478 25817 ft 478 kts 170°
2026-04-26 21:59 29.56015 -82.08647 25197 ft 473 kts 170°
2026-04-26 21:59 29.52813 -82.07825 24565 ft 468 kts 170°
2026-04-26 21:59 29.49637 -82.07014 23945 ft 464 kts 170°
2026-04-26 22:00 29.46506 -82.06217 23154 ft 461 kts 170°
2026-04-26 22:00 29.44444 -82.05694 22359 ft 449 kts 170°
2026-04-26 22:00 29.41461 -82.04936 21275 ft 430 kts 170°
2026-04-26 22:00 29.38622 -82.04105 20264 ft 414 kts 162°
2026-04-26 22:01 29.36049 -82.02774 19739 ft 390 kts 155°
2026-04-26 22:01 29.33703 -82.01370 19081 ft 373 kts 155°
2026-04-26 22:01 29.31378 -82.00147 18609 ft 362 kts 161°
2026-04-26 22:01 29.29003 -81.99265 18258 ft 357 kts 167°
2026-04-26 22:02 29.26602 -81.98499 17861 ft 361 kts 166°
2026-04-26 22:02 29.24212 -81.97613 17481 ft 360 kts 163°
2026-04-26 22:02 29.21861 -81.96662 17138 ft 354 kts 163°
2026-04-26 22:02 29.19543 -81.95763 16808 ft 353 kts 164°
2026-04-26 22:03 29.17192 -81.94894 16448 ft 356 kts 164°
2026-04-26 22:03 29.14880 -81.94027 16083 ft 351 kts 163°
2026-04-26 22:03 29.12579 -81.93147 15717 ft 347 kts 163°
2026-04-26 22:03 29.10298 -81.92278 15355 ft 346 kts 163°
2026-04-26 22:04 29.08009 -81.91410 14990 ft 346 kts 162°
2026-04-26 22:04 29.05947 -81.90060 14652 ft 341 kts 139°
2026-04-26 22:04 29.04210 -81.88201 14275 ft 345 kts 135°
2026-04-26 22:04 29.02517 -81.86260 13908 ft 342 kts 135°
2026-04-26 22:05 29.00804 -81.84397 13514 ft 338 kts 137°
2026-04-26 22:05 28.99082 -81.82596 13147 ft 335 kts 138°
2026-04-26 22:05 28.97496 -81.80641 12764 ft 338 kts 125°
2026-04-26 22:05 28.96099 -81.78487 12312 ft 335 kts 128°
2026-04-26 22:06 28.94658 -81.76407 11873 ft 332 kts 128°
2026-04-26 22:06 28.93238 -81.74334 11403 ft 329 kts 127°
2026-04-26 22:06 28.91857 -81.72268 10988 ft 326 kts 127°
2026-04-26 22:06 28.90486 -81.70222 10557 ft 323 kts 127°
2026-04-26 22:07 28.89136 -81.68225 10143 ft 321 kts 127°
2026-04-26 22:07 28.87774 -81.66214 9701 ft 319 kts 127°
2026-04-26 22:07 28.86435 -81.64225 9267 ft 315 kts 127°
2026-04-26 22:07 28.85105 -81.62247 8845 ft 311 kts 127°
2026-04-26 22:08 28.84239 -81.60958 8570 ft 308 kts 127°
2026-04-26 22:08 28.83025 -81.59147 8200 ft 304 kts 127°
2026-04-26 22:08 28.81746 -81.57240 7804 ft 300 kts 127°
2026-04-26 22:08 28.80484 -81.55357 7406 ft 296 kts 127°
2026-04-26 22:09 28.79246 -81.53505 7025 ft 293 kts 127°
2026-04-26 22:09 28.78031 -81.51684 6799 ft 284 kts 127°
2026-04-26 22:09 28.76871 -81.49946 6602 ft 275 kts 127°
2026-04-26 22:09 28.75735 -81.48245 6416 ft 265 kts 127°
2026-04-26 22:10 28.74723 -81.46538 6208 ft 256 kts 114°
2026-04-26 22:10 28.74072 -81.44711 6039 ft 247 kts 112°
2026-04-26 22:10 28.73413 -81.42894 5974 ft 246 kts 108°
2026-04-26 22:10 28.72889 -81.41091 5942 ft 246 kts 103°
2026-04-26 22:11 28.72539 -81.39201 5927 ft 245 kts 100°
2026-04-26 22:11 28.72172 -81.37318 5917 ft 242 kts 104°
2026-04-26 22:11 28.71718 -81.35462 5914 ft 243 kts 105°
2026-04-26 22:11 28.71247 -81.33602 5827 ft 248 kts 105°
2026-04-26 22:12 28.70781 -81.31681 5510 ft 253 kts 105°
2026-04-26 22:12 28.70224 -81.29787 5142 ft 253 kts 122°
2026-04-26 22:12 28.68919 -81.28496 4714 ft 252 kts 163°
2026-04-26 22:12 28.67227 -81.28356 4437 ft 241 kts 189°
2026-04-26 22:13 28.65587 -81.28461 4116 ft 230 kts 183°
2026-04-26 22:13 28.64024 -81.28449 3816 ft 218 kts 182°
2026-04-26 22:13 28.62555 -81.28432 3522 ft 205 kts 182°
2026-04-26 22:13 28.61164 -81.28416 3262 ft 194 kts 182°
2026-04-26 22:14 28.59876 -81.28400 3006 ft 174 kts 182°
2026-04-26 22:14 28.58690 -81.28376 2731 ft 166 kts 182°
2026-04-26 22:14 28.57535 -81.28361 2559 ft 169 kts 184°
2026-04-26 22:14 28.56382 -81.28374 2350 ft 162 kts 184°
2026-04-26 22:15 28.55219 -81.28366 2148 ft 166 kts 182°
2026-04-26 22:15 28.54093 -81.28356 1937 ft 164 kts 181°
2026-04-26 22:15 28.52973 -81.28340 1720 ft 158 kts 184°
2026-04-26 22:15 28.51832 -81.28334 1515 ft 160 kts 182°
2026-04-26 22:16 28.50693 -81.28332 1393 ft 171 kts 184°
2026-04-26 22:16 28.49549 -81.28315 1048 ft 162 kts 182°
2026-04-26 22:16 28.48430 -81.28302 812 ft 167 kts 182°
2026-04-26 22:16 28.47289 -81.28276 624 ft 163 kts 182°
2026-04-26 22:17 28.46144 -81.28262 461 ft 161 kts 185°
2026-04-26 22:17 28.45015 -81.28259 273 ft 166 kts 184°
2026-04-26 22:17 28.43915 -81.28251 110 ft 142 kts 180°
2026-04-26 22:17 28.43165 -81.28245 104 ft 74 kts 180°
2026-04-26 22:18 28.42791 -81.28242 109 ft 34 kts 179°
2026-04-26 22:18 28.42597 -81.28262 110 ft 17 kts 201°
2026-04-26 22:18 28.42559 -81.28290 110 ft 0 kts 226°
2026-04-26 22:19 28.42549 -81.28303 109 ft 5 kts 228°
2026-04-26 22:19 28.42523 -81.28353 109 ft 10 kts 247°
2026-04-26 22:19 28.42493 -81.28451 111 ft 16 kts 251°
2026-04-26 22:19 28.42451 -81.28590 110 ft 21 kts 251°
2026-04-26 22:20 28.42397 -81.28765 109 ft 25 kts 251°
2026-04-26 22:20 28.42335 -81.28963 111 ft 27 kts 250°
2026-04-26 22:20 28.42289 -81.29159 111 ft 16 kts 266°
2026-04-26 22:20 28.42287 -81.29224 109 ft 10 kts 269°
2026-04-26 22:21 28.42285 -81.29337 110 ft 17 kts 269°
2026-04-26 22:21 28.42284 -81.29492 106 ft 22 kts 270°
2026-04-26 22:21 28.42283 -81.29654 105 ft 14 kts 281°
2026-04-26 22:21 28.42314 -81.29693 106 ft 6 kts 325°
2026-04-26 22:22 28.42355 -81.29726 107 ft 8 kts 308°
2026-04-26 22:22 28.42363 -81.29795 108 ft 11 kts 271°
2026-04-26 22:22 28.42363 -81.29898 109 ft 16 kts 270°
2026-04-26 22:22 28.42362 -81.30053 109 ft 22 kts 269°
2026-04-26 22:23 28.42396 -81.30138 109 ft 7 kts 349°
2026-04-26 22:23 28.42431 -81.30120 109 ft 4 kts 49°
2026-04-26 22:23 28.42432 -81.30100 109 ft 3 kts 90°
2026-04-26 22:23 28.42432 -81.30064 109 ft 6 kts 91°
2026-04-26 22:24 28.42441 -81.30024 109 ft 3 kts 46°
2026-04-26 22:24 28.42465 -81.30015 108 ft 3 kts
2026-04-26 22:24 28.42491 -81.30015 107 ft 5 kts 358°
2026-04-26 22:24 28.42515 -81.30016 108 ft 0 kts 357°
2026-04-26 22:25 28.42516 -81.30016 109 ft 0 kts 357°